Location: Newark
(34.9500°N, 139.9667°E)
Time: 18:14:36
(UTC+00:00)

Vanguard 2 Rocket - Pass Details

Date: 13 December 2019
Orbit: 554 x 3326 km, 32.9° (Epoch: 20 January)

Event Time Altitude Azimuth Distance (km) Brightness Sun altitude
Rises 08:49:02 0° 255° (WSW) 6,903 13.3 -15.9°
Reaches altitude 10° 08:54:09 10° 254° (WSW) 5,575 12.2 -16.9°
Maximum altitude 09:09:35 77° 172° (S) 1,884 8.4 -19.9°
Enters shadow 09:14:56 30° 92° (E) 2,392 8.5 -21.0°
Drops below altitude 10° 09:18:02 10° 88° (E) 3,239 - -21.6°
Sets 09:20:15 0° 87° (E) 3,944 - -22.1°
